Location: Newark
(48.3453°N, 0.5589°E)
Time: 10:11:20
(UTC+00:00)

Transit 2A - All Passes

Search period start: 10 December 2019 00:00
Search period end: 20 December 2019 00:00
Orbit: 602 x 957 km, 66.7° (Epoch: 09 December)

Date Brightness Start Highest point End Pass type
(mag) Time Alt. Az. Time Alt. Az. Time Alt. Az.
10 Dec - 06:50:15 10° SSW 06:54:52 50° ESE 06:59:11 10° NE visible
10 Dec - 08:34:14 10° W 08:38:12 27° NW 08:42:00 10° NNE daylight
10 Dec - 13:50:12 10° N 13:53:24 19° NE 13:56:42 10° E daylight
10 Dec - 15:32:39 10° NW 15:37:04 80° WSW 15:41:43 10° SSE daylight
10 Dec - 17:18:36 10° W 17:19:29 10° WSW 17:20:22 10° WSW visible
11 Dec - 06:16:32 10° S 06:20:50 34° ESE 06:24:53 10° NE visible
11 Dec - 07:59:37 10° WSW 08:03:56 36° NW 08:08:02 10° NNE daylight
11 Dec - 09:47:30 10° NNW 09:48:21 10° NNW 09:49:11 10° NNW daylight
11 Dec - 13:16:23 10° N 13:19:01 15° NNE 13:21:43 10° ENE daylight
11 Dec - 14:58:32 10° NNW 15:02:56 71° NE 15:07:34 10° SE daylight
11 Dec - 16:42:51 10° WNW 16:45:35 16° WSW 16:48:25 10° SSW visible
12 Dec - 05:43:04 10° SSE 05:46:50 24° ESE 05:50:25 10° ENE visible
12 Dec - 07:25:09 10° SW 07:29:43 50° NW 07:34:02 10° NNE daylight
12 Dec - 09:11:51 10° NW 09:13:52 13° NNW 09:15:51 10° N daylight
12 Dec - 12:42:40 10° N 12:44:35 12° NNE 12:46:31 10° NE daylight
12 Dec - 14:24:28 10° NNW 14:28:46 49° NE 14:33:14 10° SE daylight
12 Dec - 16:08:05 10° WNW 16:11:38 23° WSW 16:15:21 10° SSW daylight
13 Dec - 05:10:00 10° SSE 05:12:53 16° ESE 05:15:39 10° ENE visible
13 Dec - 06:50:50 10° SW 06:55:32 72° NW 06:59:58 10° NNE visible
13 Dec - 08:36:40 10° WNW 08:39:26 16° NNW 08:42:09 10° N daylight
13 Dec - 12:09:27 10° NNE 12:10:06 10° NNE 12:10:44 10° NNE daylight
13 Dec - 13:50:29 10° NNW 13:54:33 36° NE 13:58:47 10° ESE daylight
13 Dec - 15:33:37 10° NW 15:37:39 34° WSW 15:41:52 10° S daylight
14 Dec - 04:38:00 10° ESE 04:38:58 11° ESE 04:39:57 10° E visible
14 Dec - 06:16:41 10° SSW 06:21:25 79° ESE 06:25:51 10° NE visible
14 Dec - 08:01:41 10° W 08:05:03 20° NW 08:08:18 10° NNE daylight
14 Dec - 13:16:31 10° NNW 13:20:16 27° NE 13:24:09 10° E daylight
14 Dec - 14:59:19 10° NW 15:03:36 50° WSW 15:08:09 10° SSE daylight
15 Dec - 05:42:43 10° SSW 05:47:20 54° ESE 05:51:40 10° NE visible
15 Dec - 07:26:53 10° W 07:30:43 26° NW 07:34:24 10° NNE daylight
15 Dec - 12:42:36 10° NNW 12:45:57 21° NE 12:49:22 10° E daylight
15 Dec - 14:25:07 10° NW 14:29:31 74° WSW 14:34:13 10° SSE daylight
16 Dec - 05:08:57 10° S 05:13:17 36° ESE 05:17:22 10° NE visible
16 Dec - 06:52:13 10° WSW 06:56:25 34° NW 07:00:27 10° NNE visible
16 Dec - 12:08:45 10° N 12:11:34 16° NNE 12:14:25 10° ENE daylight
16 Dec - 13:50:59 10° NNW 13:55:24 77° NE 14:00:07 10° SE daylight
16 Dec - 15:35:28 10° WNW 15:38:02 15° WSW 15:40:41 10° SW daylight
17 Dec - 04:35:26 10° SSE 04:39:17 25° ESE 04:42:56 10° ENE visible
17 Dec - 06:17:44 10° WSW 06:22:12 47° NW 06:26:27 10° NNE visible
17 Dec - 08:04:38 10° NW 08:06:25 12° NNW 08:08:11 10° N daylight
17 Dec - 11:35:01 10° N 11:37:08 13° NNE 11:39:16 10° ENE daylight
17 Dec - 13:16:55 10° NNW 13:21:15 53° NE 13:25:50 10° SE daylight
17 Dec - 15:00:38 10° WNW 15:04:05 22° WSW 15:07:42 10° SSW daylight
18 Dec - 04:02:16 10° SSE 04:05:20 17° ESE 04:08:16 10° ENE visible
18 Dec - 05:43:23 10° SW 05:48:01 67° NW 05:52:25 10° NNE visible
18 Dec - 07:29:23 10° WNW 07:31:58 15° NNW 07:34:31 10° N daylight
18 Dec - 11:01:34 10° N 11:02:39 11° NNE 11:03:45 10° NE daylight
18 Dec - 12:42:54 10° NNW 12:47:01 38° NE 12:51:23 10° ESE daylight
18 Dec - 14:26:07 10° NW 14:30:06 32° WSW 14:34:18 10° S daylight
19 Dec - 03:29:54 10° SE 03:31:25 11° ESE 03:32:53 10° E visible
19 Dec - 05:09:12 10° SSW 05:13:53 86° SE 05:18:18 10° NE visible
19 Dec - 06:54:22 10° W 06:57:34 19° NW 07:00:42 10° N visible
19 Dec - 12:08:55 10° NNW 12:12:46 28° NE 12:16:47 10° ESE daylight
19 Dec - 13:51:47 10° NW 13:56:04 46° WSW 14:00:37 10° S daylight
